Location: Schommer Observatory
(40.5200°N, 74.4500°W)
Time: 08:25:37
(UTC-04:00)

Tiangong 2 - Pass Details

Date: 09 October 2017
Orbit: 388 x 391 km, 42.8° (Epoch: 21 October)

Event Time Altitude Azimuth Distance (km) Brightness Sun altitude
Exits shadow 04:56:10 18° 128° (SE) 1,025 3.6 -24.7°
Drops below altitude 10° 04:57:52 10° 98° (E) 1,420 4.8 -24.4°
Sets 05:00:17 0° 81° (E) 2,279 6.4 -23.9°
